Location: Cahas Mountain Overlook
(37.0833°N, 80.1000°W)
Time: 11:51:29
(UTC-05:00)

N. Korean satellite - Visible Passes

Search period start: 03 December 2021 00:00
Search period end: 13 December 2021 00:00
Orbit: 447 x 495 km, 97.3° (Epoch: 02 December)

Date Brightness Start Highest point End Pass type
(mag) Time Alt. Az. Time Alt. Az. Time Alt. Az.
03 Dec 8.3 05:05:06 10° NNE 05:08:08 30° E 05:11:09 10° SSE visible
03 Dec 8.3 06:39:44 10° NW 06:41:00 12° WNW 06:42:16 10° W visible
04 Dec 9.7 04:37:56 10° ENE 04:39:29 13° E 04:41:02 10° ESE visible
04 Dec 7.3 06:09:49 10° NNW 06:12:42 27° WNW 06:15:35 10° SW visible
05 Dec 6.2 05:40:55 10° N 05:44:17 72° WNW 05:47:38 10° SSW visible
05 Dec 9.8 17:47:04 10° SW 17:49:12 15° W 17:51:19 10° WNW visible
06 Dec 7.8 05:12:33 10° NNE 05:15:46 39° E 05:18:56 10° S visible
07 Dec 9.4 04:44:56 10° NE 04:47:06 16° E 04:49:16 10° SE visible
07 Dec 7.6 06:17:36 10° NNW 06:20:14 21° WNW 06:22:51 10° WSW visible
08 Dec 6.4 05:48:30 10° N 05:51:49 54° WNW 05:55:07 10° SSW visible
08 Dec 10.0 17:55:25 10° WSW 17:56:47 12° W 17:58:09 10° WNW visible
09 Dec 7.2 05:19:58 10° NNE 05:23:17 52° E 05:26:35 10° S visible
10 Dec 9.1 04:52:03 10° NE 04:54:38 20° E 04:57:13 10° SE visible
10 Dec 7.9 06:26:09 14° NW 06:27:39 17° WNW 06:29:58 10° WSW visible
11 Dec 6.7 05:57:59 28° NNW 05:59:15 41° WNW 06:02:28 10° SSW visible
12 Dec 6.6 05:29:37 39° NNE 05:30:42 69° E 05:34:05 10° S visible
12 Dec 9.4 17:32:46 10° SSW 17:35:31 22° W 17:38:17 10° NW visible
